Location: Claflin County Park
(44.8478°N, 87.5507°W)
Time: 11:10:09
(UTC+00:00)

Lacrosse 5 rocket - Visible Passes

Search period start: 15 March 2026 00:00
Search period end: 25 March 2026 00:00
Orbit: 395 x 480 km, 57.0° (Epoch: 14 March)

Date Brightness Start Highest point End Pass type
(mag) Time Alt. Az. Time Alt. Az. Time Alt. Az.
15 Mar 3.6 10:22:47 10° SSE 10:24:22 13° SE 10:25:56 10° E visible
16 Mar 0.7 11:16:10 10° SW 11:19:22 82° SE 11:22:37 10° NE visible
17 Mar 1.4 10:36:13 21° SSW 10:38:05 48° SE 10:41:14 10° ENE visible
18 Mar 2.2 09:56:38 29° SE 09:56:48 29° SE 09:59:39 10° ENE visible
19 Mar 3.6 09:16:53 14° E 09:16:53 14° E 09:17:49 10° E visible
19 Mar 1.2 10:50:14 22° W 10:51:57 45° NW 10:55:06 10° NE visible
20 Mar 0.5 10:10:21 70° WNW 10:10:27 71° NW 10:13:42 10° NE visible
21 Mar 2.6 09:30:21 30° ENE 09:30:21 30° ENE 09:32:11 10° NE visible
21 Mar 2.6 11:03:41 11° WNW 11:05:58 19° NNW 11:08:24 10° NNE visible
22 Mar 4.1 08:50:15 12° ENE 08:50:15 12° ENE 08:50:32 10° ENE visible
22 Mar 2.1 10:23:34 23° NW 10:24:15 25° NNW 10:27:01 10° NNE visible
23 Mar 2.3 09:43:22 29° N 09:43:22 29° N 09:45:33 10° NE visible
24 Mar 3.6 09:03:06 17° NE 09:03:06 17° NE 09:04:00 10° NE visible
24 Mar 3.1 10:36:24 10° NW 10:38:09 14° NNW 10:39:55 10° NNE visible
